Simultaneous Nadir Overpasses (SNOs) Predictions

Prediction of SNOs between GOES-15 and METOP-A Satellite Orbit:

Table of predicted SNOs for the next 14.0 days since TLE Epoch: 11/17/2016
Index Date Time (GOES-15) GOES-15 Lat,Lon METOP-A Lat,Lon Distance(km) Time Diff (sec)
1 11/19/2016 18:31:03 -0.22,-135.30 -0.27,-135.11 21.77 80
2 11/21/2016 06:50:03 0.21,-135.33 -0.76,-139.71 498.88 80
3 11/22/2016 06:26:44 0.21,-135.34 0.36,-134.71 71.76 80
4 11/23/2016 18:48:14 -0.20,-135.36 0.69,-139.26 444.73 80
5 11/24/2016 18:27:34 -0.21,-135.38 -0.43,-134.27 126.17 80
6 11/26/2016 06:46:35 0.19,-135.40 -0.59,-138.86 394.78 80
7 11/27/2016 06:23:15 0.20,-135.41 0.53,-133.87 175.29 80
8 11/28/2016 18:42:07 -0.19,-135.42 0.47,-138.43 342.61 80
9 11/29/2016 18:24:07
